TimePDT,TemperatureF,Dew PointF,Humidity,Sea Level PressureIn,VisibilityMPH,Wind Direction,Wind SpeedMPH,Gust SpeedMPH,PrecipitationIn,Events,Conditions,WindDirDegrees,DateUTC
12:56 AM,84.0,34.0,17,29.62,10.0,NW,11.5,-,N/A,,Clear,310,2013-05-17 07:56:00
1:56 AM,82.0,36.0,19,29.63,10.0,West,10.4,-,N/A,,Clear,260,2013-05-17 08:56:00
2:56 AM,81.0,36.0,20,29.63,10.0,West,12.7,-,N/A,,Clear,280,2013-05-17 09:56:00
3:56 AM,80.1,37.0,21,29.63,10.0,WNW,11.5,-,N/A,,Clear,300,2013-05-17 10:56:00
4:56 AM,78.1,37.0,23,29.65,10.0,Calm,Calm,-,N/A,,Clear,0,2013-05-17 11:56:00
5:56 AM,79.0,37.0,22,29.67,10.0,WSW,5.8,-,N/A,,Clear,250,2013-05-17 12:56:00
6:56 AM,80.1,37.9,22,29.69,10.0,WNW,6.9,-,N/A,,Clear,290,2013-05-17 13:56:00
7:56 AM,81.0,39.0,22,29.70,10.0,WSW,6.9,-,N/A,,Clear,240,2013-05-17 14:56:00
8:56 AM,82.0,39.0,22,29.71,10.0,SSW,6.9,-,N/A,,Partly Cloudy,200,2013-05-17 15:56:00
9:56 AM,82.0,39.9,22,29.73,10.0,WSW,6.9,-,N/A,,Scattered Clouds,240,2013-05-17 16:56:00
10:56 AM,82.0,39.9,22,29.73,10.0,WSW,3.5,-,N/A,,Scattered Clouds,250,2013-05-17 17:56:00
11:56 AM,84.9,39.9,20,29.72,10.0,Variable,6.9,-,N/A,,Clear,0,2013-05-17 18:56:00
12:56 PM,89.1,39.9,18,29.71,10.0,WSW,16.1,-,N/A,,Clear,250,2013-05-17 19:56:00
1:56 PM,91.0,37.9,15,29.69,10.0,SW,19.6,28.8,N/A,,Clear,220,2013-05-17 20:56:00
2:56 PM,91.9,36.0,14,29.67,10.0,SW,19.6,31.1,N/A,,Clear,220,2013-05-17 21:56:00
3:56 PM,91.0,36.0,14,29.66,10.0,SW,15.0,25.3,N/A,,Clear,230,2013-05-17 22:56:00
4:56 PM,91.0,36.0,14,29.65,10.0,West,11.5,-,N/A,,Clear,260,2013-05-17 23:56:00
5:56 PM,91.0,37.0,15,29.64,10.0,West,12.7,-,N/A,,Clear,260,2013-05-18 00:56:00
6:56 PM,90.0,37.0,15,29.64,10.0,West,11.5,-,N/A,,Clear,280,2013-05-18 01:56:00
7:56 PM,88.0,37.0,16,29.64,10.0,WSW,6.9,-,N/A,,Clear,250,2013-05-18 02:56:00
8:56 PM,86.0,37.9,18,29.66,10.0,SW,12.7,-,N/A,,Clear,220,2013-05-18 03:56:00
9:56 PM,84.0,37.9,19,29.68,10.0,WSW,12.7,-,N/A,,Clear,250,2013-05-18 04:56:00
10:56 PM,82.9,37.9,20,29.69,10.0,WSW,6.9,-,N/A,,Clear,250,2013-05-18 05:56:00
11:56 PM,80.1,36.0,20,29.70,10.0,Calm,Calm,-,N/A,,Clear,0,2013-05-18 06:56:00